Regional Weather Roundup
Issued by NWS

Home | Current Version | Previous Version | Text Only | Print | Product List | Glossary Off
Versions: 1 2 3 4 5 6 7 8 9 10 11 12 13 14 15 16 17 18 19 20 21 22 23 24 25 26 27 28 29 30 31 32 33 34 35 36 37 38 39 40 41 42 43 44 45 46 47 48 49 50

000
ASUS43 KFSD 231602
RWRSD

WEATHER ROUNDUP FOR SOUTH DAKOTA
NATIONAL WEATHER SERVICE SIOUX FALLS SD
1000 AM CST THU FEB 23 2017

NOTE: "FAIR" INDICATES FEW OR NO CLOUDS BELOW 12,000 FEET WITH NO
SIGNIFICANT WEATHER AND/OR OBSTRUCTIONS TO VISIBILITY.


SDZ001>005-009-010-012>017-231700-
NORTHWEST AND NORTH CENTRAL SOUTH DAKOTA

CITY           SKY/WX    TMP DP  RH WIND       PRES   REMARKS
BUFFALO          N/A     27  23  85 NE20      29.85F WCI  13
FAITH            N/A     28  25  88 NE16      29.92F WCI  16
MOBRIDGE       CLOUDY    31  23  72 N10       29.96F WCI  22
$$

SDZ012>016-024>037-041>051-057-063-072>074-231700-
SOUTHWEST AND SOUTH CENTRAL SOUTH DAKOTA

CITY           SKY/WX    TMP DP  RH WIND       PRES   REMARKS
RAPID CTY ARPT LGT SNOW  25  22  88 NE12      29.87R VSB 1   WCI  14
PIERRE         CLOUDY    30  23  75 NE13      29.92F WCI  20
CUSTER         LGT SNOW  19  16  88 NE17G24   29.71S FOG     WCI   4
ELLSWORTH AFB  LGT SNOW  25  25 100 NE12      29.87  FOG     WCI  14
PHILIP         CLOUDY    29  22  75 NE17      29.90F WCI  17
PINE RIDGE     SNOW      25  24  96 NE13      29.81R VSB 1/2 WCI  14
SPEARFISH      MIX PCPN  27  25  93 MISG      29.84S
WINNER         CLOUDY    30  24  78 NE16G25   29.87S WCI  19
$$

SDZ004>011-016>023-039-040-231700-
NORTHEAST SOUTH DAKOTA

CITY           SKY/WX    TMP DP  RH WIND       PRES   REMARKS
ABERDEEN       CLOUDY    28  22  78 NE14      30.00R WCI  17
WATERTOWN      PTSUNNY   28  23  81 NE21G28   29.92F WCI  15
BROOKINGS      CLOUDY    29  24  82 NE16G24   29.88F WCI  17
SISSETON         N/A     30  25  81 NE18      29.99R WCI  18
$$

SDZ017-020-022-023-036>040-048>070-231700-
SOUTHEAST SOUTH DAKOTA

CITY           SKY/WX    TMP DP  RH WIND       PRES   REMARKS
SIOUX FALLS    CLOUDY    33  26  75 NE21      29.86F WCI  21
HURON          CLOUDY    32  25  75 NE14      29.94S WCI  22
CHAMBERLAIN    CLOUDY    31  26  81 NE8G16    29.90F WCI  24
MITCHELL       CLOUDY    32  26  78 NE16      29.92R WCI  21
YANKTON        CLOUDY    32  27  80 NE15      29.85F WCI  22
$$

ABBREVIATIONS USED IN REMARKS
   TC - TEMPERATURE IN CELSIUS
  WCI - WIND CHILL INDEX
   HX - HEAT INDEX
  VSB - VISIBILITY





USA.gov is the U.S. government's official web portal to all federal, state and local government web resources and services.